TimePST,TemperatureF,Dew PointF,Humidity,Sea Level PressureIn,VisibilityMPH,Wind Direction,Wind SpeedMPH,Gust SpeedMPH,PrecipitationIn,Events,Conditions,WindDirDegrees,DateUTC
12:53 AM,26.1,21.9,84,30.03,10.0,Calm,Calm,-,N/A,,Clear,0,2013-02-18 08:53:00
1:53 AM,26.1,21.9,84,30.01,10.0,Calm,Calm,-,N/A,,Clear,0,2013-02-18 09:53:00
2:53 AM,27.0,21.0,78,29.98,10.0,SE,4.6,-,N/A,,Clear,130,2013-02-18 10:53:00
4:53 AM,24.1,21.0,88,29.96,8.0,Calm,Calm,-,N/A,,Clear,0,2013-02-18 12:53:00
6:00 AM,24.8,21.2,86,29.93,10.0,NW,4.6,-,N/A,,Mostly Cloudy,320,2013-02-18 14:00:00
6:53 AM,24.1,19.9,84,29.98,10.0,East,3.5,-,N/A,,Mostly Cloudy,100,2013-02-18 14:53:00
7:53 AM,26.1,21.9,84,29.97,10.0,Calm,Calm,-,N/A,,Mostly Cloudy,0,2013-02-18 15:53:00
8:53 AM,28.9,23.0,78,29.95,10.0,Calm,Calm,-,N/A,,Mostly Cloudy,0,2013-02-18 16:53:00
9:53 AM,34.0,23.0,64,29.95,10.0,Calm,Calm,-,N/A,,Mostly Cloudy,0,2013-02-18 17:53:00
10:53 AM,37.0,21.0,52,29.92,10.0,ESE,4.6,-,N/A,,Mostly Cloudy,120,2013-02-18 18:53:00
11:53 AM,41.0,19.9,43,29.90,10.0,Calm,Calm,-,N/A,,Mostly Cloudy,0,2013-02-18 19:53:00
12:53 PM,44.1,19.0,37,29.86,10.0,West,4.6,-,N/A,,Overcast,270,2013-02-18 20:53:00
1:53 PM,44.1,19.9,38,29.85,10.0,WSW,6.9,-,N/A,,Overcast,240,2013-02-18 21:53:00
2:53 PM,43.0,19.9,40,29.84,10.0,West,11.5,-,N/A,,Overcast,260,2013-02-18 22:53:00
3:53 PM,42.1,18.0,38,29.83,10.0,West,13.8,-,N/A,,Overcast,270,2013-02-18 23:53:00
4:53 PM,39.0,19.9,46,29.83,10.0,West,9.2,-,N/A,,Overcast,280,2013-02-19 00:53:00
5:53 PM,35.1,26.1,70,29.85,10.0,WNW,12.7,-,N/A,,Overcast,300,2013-02-19 01:53:00
6:24 PM,33.8,28.4,81,29.80,5.0,West,8.1,-,0.00,Snow,Light Snow,280,2013-02-19 02:24:00
6:53 PM,32.0,28.9,88,29.85,5.0,WNW,3.5,-,0.00,Snow,Light Snow,290,2013-02-19 02:53:00
7:33 PM,32.0,30.2,93,29.79,2.0,Calm,Calm,-,0.00,Snow,Light Snow,0,2013-02-19 03:33:00
7:53 PM,30.9,30.0,96,29.83,2.0,Calm,Calm,-,0.01,Snow,Light Snow,0,2013-02-19 03:53:00
8:17 PM,30.2,30.2,100,29.77,6.0,Calm,Calm,-,0.00,Snow,Light Snow,0,2013-02-19 04:17:00
8:31 PM,30.2,28.4,93,29.76,7.0,Calm,Calm,-,0.00,,Overcast,0,2013-02-19 04:31:00
8:53 PM,30.0,28.9,96,29.81,7.0,Calm,Calm,-,0.00,,Overcast,0,2013-02-19 04:53:00
9:53 PM,30.2,28.4,93,29.78,7.0,South,3.5,-,N/A,,Mostly Cloudy,190,2013-02-19 05:53:00
10:07 PM,30.2,28.4,93,29.74,10.0,South,4.6,-,N/A,,Overcast,180,2013-02-19 06:07:00
10:53 PM,28.9,27.0,92,29.77,10.0,SW,4.6,-,N/A,,Mostly Cloudy,220,2013-02-19 06:53:00
11:53 PM,25.0,23.0,92,29.75,9.0,North,4.6,-,N/A,,Clear,10,2013-02-19 07:53:00